Location: Unspecified
(0.0000°N, 0.0000°E)
Time: 21:05:07
(UTC+00:00)

Explorer 7 - All Passes

Search period start: 01 September 2014 00:00
Search period end: 11 September 2014 00:00
Orbit: 492 x 706 km, 50.3° (Epoch: 01 September)

Date Brightness Start Highest point End Pass type
(mag) Time Alt. Az. Time Alt. Az. Time Alt. Az.
01 Sep - 07:34:58 10° NNE 07:37:37 17° NE 07:40:22 10° E daylight
01 Sep - 09:14:49 10° WNW 09:18:17 26° SW 09:21:58 10° S daylight
01 Sep - 19:39:18 10° S 19:43:36 31° SE 19:47:40 10° ENE visible
01 Sep - 21:21:06 10° W 21:24:20 19° NW 21:27:27 10° N night (unlit)
02 Sep - 07:44:10 10° NNW 07:47:56 41° NE 07:51:56 10° SE daylight
02 Sep - 09:27:32 10° WSW 09:28:47 11° SW 09:30:03 10° SSW daylight
02 Sep - 19:49:09 10° SSW 19:54:00 74° SE 19:58:32 10° NE visible
03 Sep - 07:54:18 10° NW 07:58:15 72° SW 08:02:30 10° SSE daylight
03 Sep - 18:20:57 10° SSE 18:23:24 14° SE 18:25:48 10° E visible
03 Sep - 19:59:42 10° SW 20:04:20 46° NW 20:08:42 10° NNE visible
04 Sep - 06:25:42 10° NNE 06:28:00 15° NE 06:30:23 10° E daylight
04 Sep - 08:05:13 10° WNW 08:08:39 27° SW 08:12:17 10° S daylight
04 Sep - 18:29:35 10° S 18:33:53 30° SE 18:37:59 10° ENE visible
04 Sep - 20:11:05 10° WSW 20:14:39 21° NW 20:18:04 10° N visible
05 Sep - 06:34:42 10° NNW 06:38:19 37° NE 06:42:08 10° ESE daylight
05 Sep - 08:17:43 10° WSW 08:19:08 12° SW 08:20:34 10° SSW daylight
05 Sep - 18:39:21 10° SSW 18:44:16 68° SE 18:48:55 10° NE visible
06 Sep - 06:44:45 10° NW 06:48:38 79° SW 06:52:46 10° SSE daylight
06 Sep - 17:11:22 10° SSE 17:13:39 13° SE 17:15:53 10° ESE daylight
06 Sep - 18:49:49 10° SW 18:54:36 51° NW 18:59:08 10° NNE visible
07 Sep - 05:16:27 10° NNE 05:18:23 13° NE 05:20:21 10° E visible
07 Sep - 06:55:35 10° WNW 06:59:00 29° SW 07:02:36 10° S daylight
07 Sep - 17:19:50 10° S 17:24:06 28° SE 17:28:13 10° ENE daylight
07 Sep - 19:01:04 10° WSW 19:04:55 23° NW 19:08:36 10° N visible
08 Sep - 05:25:13 10° NNW 05:28:41 33° NE 05:32:19 10° ESE visible
08 Sep - 07:07:54 10° WSW 07:09:27 12° SW 07:11:02 10° SSW daylight
08 Sep - 17:29:32 10° SSW 17:34:30 63° SE 17:39:13 10° NE daylight
09 Sep - 05:35:10 10° NW 05:38:59 86° SW 05:43:01 10° SE visible
09 Sep - 16:01:50 10° SSE 16:03:51 12° SE 16:05:51 10° ESE daylight
09 Sep - 17:39:55 10° SW 17:44:49 56° NW 17:49:30 10° NNE daylight
10 Sep - 04:07:14 10° NNE 04:08:43 12° NE 04:10:13 10° ENE visible
10 Sep - 05:45:55 10° WNW 05:49:20 31° SW 05:52:55 10° S daylight
10 Sep - 16:10:05 10° S 16:14:18 27° SE 16:18:24 10° ENE daylight
10 Sep - 17:51:03 10° WSW 17:55:07 25° NW 17:59:03 10° N daylight
